Time,TemperatureF,DewpointF,PressureIn,WindDirection,WindDirectionDegrees,WindSpeedMPH,WindSpeedGustMPH,Humidity,HourlyPrecipIn,Conditions,Clouds,dailyrainin,SoftwareType,DateUTC
2013-03-08 00:00:00,30.8,29.8,30.10,NNW,344,0.0,2.0,96,0.00,,,0.05,HR-IXPWINDi_r2_v1.2.,2013-03-08 05:00:00,
2013-03-08 00:05:00,30.7,29.7,30.10,WSW,247,0.0,2.0,96,0.00,,,0.00,HR-IXPWINDi_r2_v1.2.,2013-03-08 05:05:00,
2013-03-08 00:10:00,30.7,29.7,30.10,SE,145,0.0,2.0,96,0.00,,,0.00,HR-IXPWINDi_r2_v1.2.,2013-03-08 05:10:00,
2013-03-08 00:15:00,30.7,29.7,30.10,WNW,289,0.0,2.0,96,0.00,,,0.00,HR-IXPWINDi_r2_v1.2.,2013-03-08 05:15:00,
2013-03-08 00:20:00,30.7,29.7,30.10,NNW,332,0.0,2.0,96,0.00,,,0.00,HR-IXPWINDi_r2_v1.2.,2013-03-08 05:20:00,
2013-03-08 00:26:00,30.8,29.8,30.10,WNW,303,0.0,2.0,96,0.00,,,0.00,HR-IXPWINDi_r2_v1.2.,2013-03-08 05:26:00,
2013-03-08 00:31:00,30.8,29.8,30.10,SSW,209,0.0,1.0,96,0.00,,,0.00,HR-IXPWINDi_r2_v1.2.,2013-03-08 05:31:00,
2013-03-08 00:36:00,30.8,29.8,30.10,NW,313,0.0,2.0,96,0.00,,,0.00,HR-IXPWINDi_r2_v1.2.,2013-03-08 05:36:00,
2013-03-08 00:41:00,30.8,29.8,30.10,NNW,341,0.0,2.0,96,0.00,,,0.00,HR-IXPWINDi_r2_v1.2.,2013-03-08 05:41:00,
2013-03-08 00:46:00,30.8,29.8,30.10,WNW,297,0.0,2.0,96,0.00,,,0.00,HR-IXPWINDi_r2_v1.2.,2013-03-08 05:46:00,
2013-03-08 00:51:00,30.8,29.8,30.10,NNW,341,0.0,2.0,96,0.00,,,0.00,HR-IXPWINDi_r2_v1.2.,2013-03-08 05:51:00,
2013-03-08 00:56:00,30.8,29.8,30.10,North,359,0.0,1.0,96,0.00,,,0.00,HR-IXPWINDi_r2_v1.2.,2013-03-08 05:56:00,
2013-03-08 01:02:00,30.8,29.8,30.10,North,349,1.0,1.0,96,0.00,,,0.00,HR-IXPWINDi_r2_v1.2.,2013-03-08 06:02:00,
2013-03-08 01:07:00,30.7,29.7,30.10,NNW,340,0.0,1.0,96,0.00,,,0.00,HR-IXPWINDi_r2_v1.2.,2013-03-08 06:07:00,
2013-03-08 01:12:00,30.7,29.7,30.10,NW,320,0.0,2.0,96,0.00,,,0.00,HR-IXPWINDi_r2_v1.2.,2013-03-08 06:12:00,
2013-03-08 01:17:00,30.7,29.7,30.10,NNW,340,0.0,2.0,96,0.00,,,0.00,HR-IXPWINDi_r2_v1.2.,2013-03-08 06:17:00,
2013-03-08 01:23:00,30.6,29.6,30.10,NW,314,0.0,1.0,96,0.00,,,0.00,HR-IXPWINDi_r2_v1.2.,2013-03-08 06:23:00,
2013-03-08 01:28:00,30.6,29.6,30.10,West,265,0.0,1.0,96,0.00,,,0.00,HR-IXPWINDi_r2_v1.2.,2013-03-08 06:28:00,
2013-03-08 01:33:00,30.6,29.6,30.10,NNE,20,0.0,1.0,96,0.00,,,0.00,HR-IXPWINDi_r2_v1.2.,2013-03-08 06:33:00,
2013-03-08 01:38:00,30.7,29.7,30.10,NW,318,0.0,2.0,96,0.00,,,0.00,HR-IXPWINDi_r2_v1.2.,2013-03-08 06:38:00,
2013-03-08 01:43:00,30.7,29.7,30.10,SW,233,0.0,3.0,96,0.00,,,0.00,HR-IXPWINDi_r2_v1.2.,2013-03-08 06:43:00,
2013-03-08 01:48:00,30.7,29.7,30.10,NNW,331,0.0,3.0,96,0.00,,,0.00,HR-IXPWINDi_r2_v1.2.,2013-03-08 06:48:00,
2013-03-08 01:54:00,30.7,29.7,30.10,North,3,1.0,2.0,96,0.00,,,0.00,HR-IXPWINDi_r2_v1.2.,2013-03-08 06:54:00,
2013-03-08 01:59:00,30.7,29.7,30.10,NNW,345,0.0,2.0,96,0.00,,,0.00,HR-IXPWINDi_r2_v1.2.,2013-03-08 06:59:00,
2013-03-08 02:04:00,30.7,29.7,30.09,NW,325,1.0,2.0,96,0.00,,,0.00,HR-IXPWINDi_r2_v1.2.,2013-03-08 07:04:00,
2013-03-08 02:09:00,30.7,29.4,30.09,West,261,0.0,2.0,95,0.00,,,0.00,HR-IXPWINDi_r2_v1.2.,2013-03-08 07:09:00,
2013-03-08 02:14:00,30.6,29.3,30.09,WNW,283,0.0,1.0,95,0.00,,,0.00,HR-IXPWINDi_r2_v1.2.,2013-03-08 07:14:00,
2013-03-08 02:19:00,30.7,29.4,30.09,North,352,0.0,1.0,95,0.00,,,0.00,HR-IXPWINDi_r2_v1.2.,2013-03-08 07:19:00,
2013-03-08 02:25:00,30.6,29.3,30.09,NNW,332,0.0,2.0,95,0.00,,,0.00,HR-IXPWINDi_r2_v1.2.,2013-03-08 07:25:00,
2013-03-08 02:30:00,30.7,29.4,30.09,North,358,2.0,2.0,95,0.00,,,0.00,HR-IXPWINDi_r2_v1.2.,2013-03-08 07:30:00,
2013-03-08 02:35:00,30.7,29.2,30.08,SSW,197,0.0,2.0,94,0.00,,,0.00,HR-IXPWINDi_r2_v1.2.,2013-03-08 07:35:00,
2013-03-08 02:40:00,30.7,29.2,30.08,WSW,250,0.0,2.0,94,0.00,,,0.00,HR-IXPWINDi_r2_v1.2.,2013-03-08 07:40:00,
2013-03-08 02:45:00,30.6,29.1,30.08,NNW,342,0.0,2.0,94,0.00,,,0.00,HR-IXPWINDi_r2_v1.2.,2013-03-08 07:45:00,
2013-03-08 02:51:00,30.6,29.1,30.08,WSW,257,0.0,2.0,94,0.00,,,0.00,HR-IXPWINDi_r2_v1.2.,2013-03-08 07:51:00,
2013-03-08 02:56:00,30.6,29.1,30.08,West,265,0.0,2.0,94,0.00,,,0.00,HR-IXPWINDi_r2_v1.2.,2013-03-08 07:56:00,
2013-03-08 03:01:00,30.7,29.2,30.08,WSW,249,0.0,2.0,94,0.00,,,0.00,HR-IXPWINDi_r2_v1.2.,2013-03-08 08:01:00,
2013-03-08 03:06:00,30.7,29.2,30.08,SW,235,0.0,2.0,94,0.00,,,0.00,HR-IXPWINDi_r2_v1.2.,2013-03-08 08:06:00,
2013-03-08 03:11:00,30.7,29.2,30.08,East,81,0.0,2.0,94,0.00,,,0.00,HR-IXPWINDi_r2_v1.2.,2013-03-08 08:11:00,
2013-03-08 03:17:00,30.7,29.2,30.08,NNW,348,0.0,1.0,94,0.00,,,0.00,HR-IXPWINDi_r2_v1.2.,2013-03-08 08:17:00,
2013-03-08 03:22:00,30.7,29.2,30.08,North,349,0.0,4.0,94,0.00,,,0.00,HR-IXPWINDi_r2_v1.2.,2013-03-08 08:22:00,
2013-03-08 03:27:00,30.7,29.2,30.08,NNW,328,0.0,4.0,94,0.00,,,0.00,HR-IXPWINDi_r2_v1.2.,2013-03-08 08:27:00,
2013-03-08 03:32:00,30.8,29.3,30.08,NE,38,0.0,5.0,94,0.00,,,0.00,HR-IXPWINDi_r2_v1.2.,2013-03-08 08:32:00,
2013-03-08 03:37:00,30.7,29.2,30.07,WNW,297,0.0,5.0,94,0.00,,,0.00,HR-IXPWINDi_r2_v1.2.,2013-03-08 08:37:00,
2013-03-08 03:42:00,30.6,29.1,30.07,WSW,245,0.0,5.0,94,0.00,,,0.00,HR-IXPWINDi_r2_v1.2.,2013-03-08 08:42:00,
2013-03-08 03:48:00,30.5,29.0,30.07,North,9,0.0,5.0,94,0.00,,,0.00,HR-IXPWINDi_r2_v1.2.,2013-03-08 08:48:00,
2013-03-08 03:53:00,30.4,28.9,30.07,NNW,343,0.0,5.0,94,0.00,,,0.00,HR-IXPWINDi_r2_v1.2.,2013-03-08 08:53:00,
2013-03-08 03:58:00,30.4,28.9,30.07,NNW,339,2.0,6.0,94,0.00,,,0.00,HR-IXPWINDi_r2_v1.2.,2013-03-08 08:58:00,
2013-03-08 04:03:00,30.3,28.8,30.07,West,271,0.0,6.0,94,0.00,,,0.00,HR-IXPWINDi_r2_v1.2.,2013-03-08 09:03:00,
2013-03-08 04:08:00,30.3,29.0,30.07,ENE,75,1.0,6.0,95,0.00,,,0.00,HR-IXPWINDi_r2_v1.2.,2013-03-08 09:08:00,
2013-03-08 04:14:00,30.2,28.9,30.07,NNW,335,0.0,3.0,95,0.00,,,0.00,HR-IXPWINDi_r2_v1.2.,2013-03-08 09:14:00,
2013-03-08 04:19:00,30.1,28.8,30.07,NNW,328,0.0,3.0,95,0.00,,,0.00,HR-IXPWINDi_r2_v1.2.,2013-03-08 09:19:00,
2013-03-08 04:24:00,30.1,28.8,30.06,West,273,0.0,2.0,95,0.00,,,0.00,HR-IXPWINDi_r2_v1.2.,2013-03-08 09:24:00,
2013-03-08 04:29:00,30.1,28.8,30.07,NNW,348,1.0,2.0,95,0.00,,,0.00,HR-IXPWINDi_r2_v1.2.,2013-03-08 09:29:00,
2013-03-08 04:35:00,30.1,28.8,30.07,NW,304,0.0,3.0,95,0.00,,,0.00,HR-IXPWINDi_r2_v1.2.,2013-03-08 09:35:00,
2013-03-08 04:40:00,30.1,28.8,30.07,North,7,0.0,3.0,95,0.00,,,0.00,HR-IXPWINDi_r2_v1.2.,2013-03-08 09:40:00,
2013-03-08 04:45:00,30.0,29.0,30.07,NNW,340,1.0,2.0,96,0.00,,,0.00,HR-IXPWINDi_r2_v1.2.,2013-03-08 09:45:00,
2013-03-08 04:50:00,30.0,29.0,30.07,SW,214,1.0,2.0,96,0.00,,,0.00,HR-IXPWINDi_r2_v1.2.,2013-03-08 09:50:00,
2013-03-08 04:55:00,30.0,29.0,30.07,NNW,338,0.0,4.0,96,0.00,,,0.00,HR-IXPWINDi_r2_v1.2.,2013-03-08 09:55:00,
2013-03-08 05:00:00,30.0,29.0,30.07,NNW,331,0.0,4.0,96,0.00,,,0.00,HR-IXPWINDi_r2_v1.2.,2013-03-08 10:00:00,
2013-03-08 05:06:00,30.0,29.0,30.07,South,176,0.0,2.0,96,0.00,,,0.00,HR-IXPWINDi_r2_v1.2.,2013-03-08 10:06:00,
2013-03-08 05:11:00,30.0,29.0,30.07,West,268,0.0,2.0,96,0.00,,,0.00,HR-IXPWINDi_r2_v1.2.,2013-03-08 10:11:00,
2013-03-08 05:16:00,30.0,29.2,30.07,South,184,0.0,1.0,97,0.00,,,0.00,HR-IXPWINDi_r2_v1.2.,2013-03-08 10:16:00,
2013-03-08 05:21:00,30.0,29.2,30.07,NW,309,0.0,2.0,97,0.00,,,0.00,HR-IXPWINDi_r2_v1.2.,2013-03-08 10:21:00,
2013-03-08 05:26:00,30.0,29.2,30.07,NW,309,0.0,2.0,97,0.00,,,0.00,HR-IXPWINDi_r2_v1.2.,2013-03-08 10:26:00,
2013-03-08 05:32:00,30.1,29.3,30.07,SW,235,0.0,3.0,97,0.00,,,0.00,HR-IXPWINDi_r2_v1.2.,2013-03-08 10:32:00,
2013-03-08 05:37:00,30.1,29.3,30.07,NW,325,0.0,3.0,97,0.00,,,0.00,HR-IXPWINDi_r2_v1.2.,2013-03-08 10:37:00,
2013-03-08 05:42:00,30.0,29.2,30.07,SE,139,0.0,1.0,97,0.00,,,0.00,HR-IXPWINDi_r2_v1.2.,2013-03-08 10:42:00,
2013-03-08 05:48:00,30.0,29.2,30.07,NNW,342,0.0,1.0,97,0.00,,,0.00,HR-IXPWINDi_r2_v1.2.,2013-03-08 10:48:00,
2013-03-08 05:53:00,30.0,29.2,30.07,NNW,344,0.0,1.0,97,0.00,,,0.00,HR-IXPWINDi_r2_v1.2.,2013-03-08 10:53:00,
2013-03-08 05:58:00,30.0,29.2,30.07,NNW,332,0.0,2.0,97,0.00,,,0.00,HR-IXPWINDi_r2_v1.2.,2013-03-08 10:58:00,
2013-03-08 06:03:00,30.0,29.2,30.07,NNW,341,0.0,2.0,97,0.00,,,0.00,HR-IXPWINDi_r2_v1.2.,2013-03-08 11:03:00,
2013-03-08 06:09:00,30.0,29.2,30.07,SE,126,0.0,1.0,97,0.00,,,0.00,HR-IXPWINDi_r2_v1.2.,2013-03-08 11:09:00,
2013-03-08 06:14:00,29.9,29.1,30.07,WSW,257,0.0,1.0,97,0.00,,,0.00,HR-IXPWINDi_r2_v1.2.,2013-03-08 11:14:00,
2013-03-08 06:19:00,29.9,29.1,30.07,North,351,0.0,2.0,97,0.00,,,0.00,HR-IXPWINDi_r2_v1.2.,2013-03-08 11:19:00,
2013-03-08 06:24:00,29.9,29.1,30.07,North,351,0.0,2.0,97,0.00,,,0.00,HR-IXPWINDi_r2_v1.2.,2013-03-08 11:24:00,
2013-03-08 06:29:00,30.0,29.2,30.07,West,266,0.0,1.0,97,0.00,,,0.00,HR-IXPWINDi_r2_v1.2.,2013-03-08 11:29:00,
2013-03-08 06:35:00,30.0,29.2,30.07,North,355,0.0,1.0,97,0.00,,,0.00,HR-IXPWINDi_r2_v1.2.,2013-03-08 11:35:00,
2013-03-08 06:40:00,30.0,29.2,30.07,NW,306,0.0,1.0,97,0.00,,,0.00,HR-IXPWINDi_r2_v1.2.,2013-03-08 11:40:00,
2013-03-08 06:45:00,30.0,29.2,30.07,NW,314,0.0,1.0,97,0.00,,,0.00,HR-IXPWINDi_r2_v1.2.,2013-03-08 11:45:00,
2013-03-08 06:50:00,30.0,29.2,30.08,NNW,344,0.0,1.0,97,0.00,,,0.00,HR-IXPWINDi_r2_v1.2.,2013-03-08 11:50:00,
2013-03-08 06:55:00,30.1,29.3,30.08,North,351,0.0,1.0,97,0.00,,,0.00,HR-IXPWINDi_r2_v1.2.,2013-03-08 11:55:00,
2013-03-08 07:01:00,30.1,29.3,30.07,SW,226,0.0,1.0,97,0.00,,,0.00,HR-IXPWINDi_r2_v1.2.,2013-03-08 12:01:00,
2013-03-08 07:06:00,30.2,29.4,30.08,NW,310,0.0,1.0,97,0.00,,,0.00,HR-IXPWINDi_r2_v1.2.,2013-03-08 12:06:00,
2013-03-08 07:11:00,30.2,29.4,30.08,West,266,0.0,2.0,97,0.00,,,0.00,HR-IXPWINDi_r2_v1.2.,2013-03-08 12:11:00,
2013-03-08 07:16:00,30.3,29.5,30.08,NNW,337,0.0,2.0,97,0.00,,,0.00,HR-IXPWINDi_r2_v1.2.,2013-03-08 12:16:00,
2013-03-08 07:21:00,30.4,29.4,30.08,North,356,0.0,1.0,96,0.00,,,0.00,HR-IXPWINDi_r2_v1.2.,2013-03-08 12:21:00,
2013-03-08 07:26:00,30.4,29.4,30.08,NW,316,0.0,1.0,96,0.00,,,0.00,HR-IXPWINDi_r2_v1.2.,2013-03-08 12:26:00,
2013-03-08 07:31:00,30.5,29.5,30.08,NNW,340,0.0,1.0,96,0.00,,,0.00,HR-IXPWINDi_r2_v1.2.,2013-03-08 12:31:00,
2013-03-08 07:37:00,30.5,29.5,30.08,NNW,339,0.0,1.0,96,0.00,,,0.00,HR-IXPWINDi_r2_v1.2.,2013-03-08 12:37:00,
2013-03-08 07:42:00,30.5,29.5,30.08,NNW,348,0.0,1.0,96,0.00,,,0.00,HR-IXPWINDi_r2_v1.2.,2013-03-08 12:42:00,
2013-03-08 07:47:00,30.5,29.5,30.08,NNW,341,0.0,2.0,96,0.00,,,0.00,HR-IXPWINDi_r2_v1.2.,2013-03-08 12:47:00,
2013-03-08 07:52:00,30.6,29.6,30.08,NW,322,0.0,2.0,96,0.00,,,0.00,HR-IXPWINDi_r2_v1.2.,2013-03-08 12:52:00,
2013-03-08 07:58:00,30.6,29.6,30.08,NNW,345,0.0,3.0,96,0.00,,,0.00,HR-IXPWINDi_r2_v1.2.,2013-03-08 12:58:00,
2013-03-08 08:03:00,30.7,29.7,30.08,NNW,338,0.0,3.0,96,0.00,,,0.00,HR-IXPWINDi_r2_v1.2.,2013-03-08 13:03:00,
2013-03-08 08:08:00,30.8,29.8,30.08,WNW,293,0.0,1.0,96,0.00,,,0.00,HR-IXPWINDi_r2_v1.2.,2013-03-08 13:08:00,
2013-03-08 08:13:00,30.8,29.8,30.08,NW,317,0.0,0.0,96,0.00,,,0.00,HR-IXPWINDi_r2_v1.2.,2013-03-08 13:13:00,
2013-03-08 08:18:00,30.9,29.9,30.08,SSW,202,0.0,0.0,96,0.00,,,0.00,HR-IXPWINDi_r2_v1.2.,2013-03-08 13:18:00,
2013-03-08 08:24:00,31.0,30.0,30.08,NNW,342,0.0,0.0,96,0.00,,,0.00,HR-IXPWINDi_r2_v1.2.,2013-03-08 13:24:00,
2013-03-08 08:29:00,31.0,30.0,30.08,SSW,204,0.0,0.0,96,0.00,,,0.00,HR-IXPWINDi_r2_v1.2.,2013-03-08 13:29:00,
2013-03-08 08:34:00,31.1,30.1,30.08,NNW,344,0.0,0.0,96,0.00,,,0.00,HR-IXPWINDi_r2_v1.2.,2013-03-08 13:34:00,
2013-03-08 08:39:00,31.2,30.2,30.08,NNW,344,0.0,0.0,96,0.00,,,0.00,HR-IXPWINDi_r2_v1.2.,2013-03-08 13:39:00,
2013-03-08 08:44:00,31.2,30.2,30.07,SW,224,0.0,0.0,96,0.00,,,0.00,HR-IXPWINDi_r2_v1.2.,2013-03-08 13:44:00,
2013-03-08 08:50:00,31.2,30.2,30.08,North,351,0.0,0.0,96,0.00,,,0.00,HR-IXPWINDi_r2_v1.2.,2013-03-08 13:50:00,
2013-03-08 08:55:00,31.3,30.3,30.08,NE,39,0.0,0.0,96,0.00,,,0.00,HR-IXPWINDi_r2_v1.2.,2013-03-08 13:55:00,
2013-03-08 09:00:00,31.3,30.3,30.08,NNW,344,0.0,0.0,96,0.00,,,0.00,HR-IXPWINDi_r2_v1.2.,2013-03-08 14:00:00,
2013-03-08 09:05:00,31.4,30.4,30.08,NNW,348,0.0,0.0,96,0.00,,,0.00,HR-IXPWINDi_r2_v1.2.,2013-03-08 14:05:00,
2013-03-08 09:10:00,31.5,30.7,30.08,WNW,286,0.0,0.0,97,0.00,,,0.00,HR-IXPWINDi_r2_v1.2.,2013-03-08 14:10:00,
2013-03-08 09:16:00,31.6,30.6,30.08,ESE,107,0.0,0.0,96,0.00,,,0.00,HR-IXPWINDi_r2_v1.2.,2013-03-08 14:16:00,
2013-03-08 09:21:00,31.6,30.6,30.08,NNE,25,0.0,0.0,96,0.00,,,0.00,HR-IXPWINDi_r2_v1.2.,2013-03-08 14:21:00,
2013-03-08 09:26:00,31.6,30.8,30.08,NNW,328,0.0,0.0,97,0.00,,,0.00,HR-IXPWINDi_r2_v1.2.,2013-03-08 14:26:00,
2013-03-08 09:31:00,31.6,30.8,30.08,NNW,346,0.0,0.0,97,0.00,,,0.00,HR-IXPWINDi_r2_v1.2.,2013-03-08 14:31:00,
2013-03-08 09:36:00,31.7,30.9,30.08,NNW,347,0.0,0.0,97,0.00,,,0.00,HR-IXPWINDi_r2_v1.2.,2013-03-08 14:36:00,
2013-03-08 09:42:00,31.7,30.9,30.09,NNW,345,0.0,0.0,97,0.00,,,0.00,HR-IXPWINDi_r2_v1.2.,2013-03-08 14:42:00,
2013-03-08 09:47:00,31.8,31.0,30.08,NNW,345,0.0,0.0,97,0.00,,,0.00,HR-IXPWINDi_r2_v1.2.,2013-03-08 14:47:00,
2013-03-08 09:52:00,31.9,31.1,30.08,South,190,0.0,0.0,97,0.00,,,0.00,HR-IXPWINDi_r2_v1.2.,2013-03-08 14:52:00,
2013-03-08 09:57:00,31.8,31.0,30.08,WSW,238,0.0,0.0,97,0.00,,,0.00,HR-IXPWINDi_r2_v1.2.,2013-03-08 14:57:00,
2013-03-08 10:03:00,31.9,31.1,30.09,WNW,287,0.0,0.0,97,0.00,,,0.00,HR-IXPWINDi_r2_v1.2.,2013-03-08 15:03:00,
2013-03-08 10:08:00,31.9,31.1,30.08,NW,306,0.0,0.0,97,0.00,,,0.00,HR-IXPWINDi_r2_v1.2.,2013-03-08 15:08:00,
2013-03-08 10:13:00,31.8,31.0,30.08,West,264,0.0,0.0,97,0.00,,,0.00,HR-IXPWINDi_r2_v1.2.,2013-03-08 15:13:00,
2013-03-08 10:18:00,31.9,31.1,30.08,NE,53,0.0,0.0,97,0.00,,,0.00,HR-IXPWINDi_r2_v1.2.,2013-03-08 15:18:00,
2013-03-08 10:23:00,31.9,31.1,30.08,North,358,0.0,0.0,97,0.00,,,0.00,HR-IXPWINDi_r2_v1.2.,2013-03-08 15:23:00,
2013-03-08 10:29:00,31.9,31.1,30.09,SW,228,0.0,0.0,97,0.00,,,0.00,HR-IXPWINDi_r2_v1.2.,2013-03-08 15:29:00,
2013-03-08 10:34:00,31.9,31.1,30.08,WNW,282,0.0,0.0,97,0.00,,,0.00,HR-IXPWINDi_r2_v1.2.,2013-03-08 15:34:00,
2013-03-08 10:39:00,31.9,31.1,30.09,NNW,348,0.0,0.0,97,0.00,,,0.00,HR-IXPWINDi_r2_v1.2.,2013-03-08 15:39:00,
2013-03-08 10:44:00,31.9,30.9,30.09,East,98,0.0,0.0,96,0.00,,,0.00,HR-IXPWINDi_r2_v1.2.,2013-03-08 15:44:00,
2013-03-08 10:49:00,31.9,30.9,30.09,North,2,0.0,0.0,96,0.00,,,0.00,HR-IXPWINDi_r2_v1.2.,2013-03-08 15:49:00,
2013-03-08 10:54:00,31.9,30.9,30.09,NNE,12,0.0,0.0,96,0.00,,,0.00,HR-IXPWINDi_r2_v1.2.,2013-03-08 15:54:00,
2013-03-08 11:00:00,31.9,30.9,30.09,North,359,0.0,0.0,96,0.00,,,0.00,HR-IXPWINDi_r2_v1.2.,2013-03-08 16:00:00,
2013-03-08 11:05:00,31.9,31.1,30.09,North,352,0.0,0.0,97,0.00,,,0.00,HR-IXPWINDi_r2_v1.2.,2013-03-08 16:05:00,
2013-03-08 11:10:00,31.9,31.1,30.09,NNW,338,0.0,0.0,97,0.00,,,0.00,HR-IXPWINDi_r2_v1.2.,2013-03-08 16:10:00,
2013-03-08 11:15:00,32.0,31.2,30.08,NNW,348,0.0,0.0,97,0.00,,,0.00,HR-IXPWINDi_r2_v1.2.,2013-03-08 16:15:00,
2013-03-08 11:20:00,32.0,31.2,30.09,NW,304,0.0,0.0,97,0.00,,,0.00,HR-IXPWINDi_r2_v1.2.,2013-03-08 16:20:00,
2013-03-08 11:26:00,32.1,31.3,30.09,NW,313,0.0,0.0,97,0.00,,,0.00,HR-IXPWINDi_r2_v1.2.,2013-03-08 16:26:00,
2013-03-08 11:31:00,32.1,31.3,30.09,ENE,70,0.0,0.0,97,0.00,,,0.00,HR-IXPWINDi_r2_v1.2.,2013-03-08 16:31:00,
2013-03-08 11:36:00,32.2,31.4,30.09,WSW,251,0.0,0.0,97,0.00,,,0.00,HR-IXPWINDi_r2_v1.2.,2013-03-08 16:36:00,
2013-03-08 11:41:00,32.2,31.4,30.09,NNW,332,0.0,0.0,97,0.00,,,0.00,HR-IXPWINDi_r2_v1.2.,2013-03-08 16:41:00,
2013-03-08 11:47:00,32.4,31.6,30.09,NW,321,0.0,0.0,97,0.00,,,0.00,HR-IXPWINDi_r2_v1.2.,2013-03-08 16:47:00,
2013-03-08 11:52:00,32.4,31.6,30.09,NW,321,0.0,0.0,97,0.00,,,0.00,HR-IXPWINDi_r2_v1.2.,2013-03-08 16:52:00,
2013-03-08 11:57:00,32.5,31.7,30.09,WSW,255,0.0,0.0,97,0.00,,,0.00,HR-IXPWINDi_r2_v1.2.,2013-03-08 16:57:00,
2013-03-08 12:02:00,32.7,31.9,30.09,WSW,256,0.0,0.0,97,0.00,,,0.00,HR-IXPWINDi_r2_v1.2.,2013-03-08 17:02:00,
2013-03-08 12:07:00,32.7,31.9,30.09,WSW,256,0.0,0.0,97,0.00,,,0.00,HR-IXPWINDi_r2_v1.2.,2013-03-08 17:07:00,
2013-03-08 12:12:00,32.7,31.9,30.09,WSW,257,0.0,0.0,97,0.00,,,0.00,HR-IXPWINDi_r2_v1.2.,2013-03-08 17:12:00,
2013-03-08 12:17:00,32.8,32.0,30.09,WSW,257,0.0,0.0,97,0.00,,,0.00,HR-IXPWINDi_r2_v1.2.,2013-03-08 17:17:00,
2013-03-08 12:23:00,32.9,32.1,30.08,WSW,254,0.0,0.0,97,0.00,,,0.00,HR-IXPWINDi_r2_v1.2.,2013-03-08 17:23:00,
2013-03-08 12:28:00,33.1,32.3,30.08,SW,233,0.0,0.0,97,0.00,,,0.00,HR-IXPWINDi_r2_v1.2.,2013-03-08 17:28:00,
2013-03-08 12:33:00,33.2,32.4,30.08,SW,233,0.0,0.0,97,0.00,,,0.00,HR-IXPWINDi_r2_v1.2.,2013-03-08 17:33:00,
2013-03-08 12:38:00,33.4,32.6,30.08,SW,231,0.0,0.0,97,0.00,,,0.00,HR-IXPWINDi_r2_v1.2.,2013-03-08 17:38:00,
2013-03-08 12:44:00,33.5,32.4,30.07,SW,233,0.0,0.0,96,0.00,,,0.00,HR-IXPWINDi_r2_v1.2.,2013-03-08 17:44:00,
2013-03-08 12:49:00,33.5,32.4,30.07,SW,231,0.0,0.0,96,0.00,,,0.00,HR-IXPWINDi_r2_v1.2.,2013-03-08 17:49:00,
2013-03-08 12:54:00,33.5,32.4,30.06,SW,231,0.0,0.0,96,0.00,,,0.00,HR-IXPWINDi_r2_v1.2.,2013-03-08 17:54:00,
2013-03-08 12:59:00,33.5,32.4,30.06,WSW,242,0.0,0.0,96,0.00,,,0.00,HR-IXPWINDi_r2_v1.2.,2013-03-08 17:59:00,
2013-03-08 13:04:00,33.6,32.5,30.07,WSW,243,0.0,0.0,96,0.00,,,0.00,HR-IXPWINDi_r2_v1.2.,2013-03-08 18:04:00,
2013-03-08 13:09:00,33.9,33.1,30.07,WSW,242,0.0,0.0,97,0.00,,,0.00,HR-IXPWINDi_r2_v1.2.,2013-03-08 18:09:00,
2013-03-08 13:14:00,34.2,33.1,30.07,WSW,242,0.0,0.0,96,0.00,,,0.00,HR-IXPWINDi_r2_v1.2.,2013-03-08 18:14:00,
2013-03-08 13:20:00,34.3,33.2,30.07,NW,309,0.0,0.0,96,0.00,,,0.00,HR-IXPWINDi_r2_v1.2.,2013-03-08 18:20:00,
2013-03-08 13:25:00,34.6,33.5,30.07,NW,309,0.0,0.0,96,0.00,,,0.00,HR-IXPWINDi_r2_v1.2.,2013-03-08 18:25:00,
2013-03-08 13:30:00,34.9,33.6,30.08,NW,318,0.0,0.0,95,0.00,,,0.00,HR-IXPWINDi_r2_v1.2.,2013-03-08 18:30:00,
2013-03-08 13:36:00,34.8,33.5,30.08,NNW,338,0.0,0.0,95,0.00,,,0.00,HR-IXPWINDi_r2_v1.2.,2013-03-08 18:36:00,
2013-03-08 13:41:00,34.9,33.6,30.08,SW,218,0.0,0.0,95,0.00,,,0.00,HR-IXPWINDi_r2_v1.2.,2013-03-08 18:41:00,
2013-03-08 13:46:00,35.1,33.8,30.07,NW,314,0.0,0.0,95,0.00,,,0.00,HR-IXPWINDi_r2_v1.2.,2013-03-08 18:46:00,
2013-03-08 13:51:00,35.5,34.2,30.09,NW,317,0.0,0.0,95,0.00,,,0.00,HR-IXPWINDi_r2_v1.2.,2013-03-08 18:51:00,
2013-03-08 13:57:00,36.0,34.4,30.09,NNW,345,0.0,1.0,94,0.00,,,0.01,HR-IXPWINDi_r2_v1.2.,2013-03-08 18:57:00,
2013-03-08 14:02:00,36.1,34.2,30.10,ENE,72,0.0,1.0,93,0.00,,,0.01,HR-IXPWINDi_r2_v1.2.,2013-03-08 19:02:00,
2013-03-08 14:07:00,36.3,34.2,30.10,North,349,0.0,3.0,92,0.00,,,0.01,HR-IXPWINDi_r2_v1.2.,2013-03-08 19:07:00,
2013-03-08 14:12:00,36.3,33.9,30.10,West,261,2.0,4.0,91,0.00,,,0.01,HR-IXPWINDi_r2_v1.2.,2013-03-08 19:12:00,
2013-03-08 14:17:00,36.2,33.8,30.10,NNW,334,0.0,4.0,91,0.00,,,0.01,HR-IXPWINDi_r2_v1.2.,2013-03-08 19:17:00,
2013-03-08 14:23:00,36.0,33.6,30.10,NW,308,0.0,4.0,91,0.00,,,0.02,HR-IXPWINDi_r2_v1.2.,2013-03-08 19:23:00,
2013-03-08 14:28:00,36.0,33.6,30.10,NNW,345,3.0,6.0,91,0.00,,,0.02,HR-IXPWINDi_r2_v1.2.,2013-03-08 19:28:00,
2013-03-08 14:33:00,36.0,33.6,30.10,NW,311,0.0,6.0,91,0.00,,,0.02,HR-IXPWINDi_r2_v1.2.,2013-03-08 19:33:00,
2013-03-08 14:38:00,35.9,33.5,30.10,NW,307,3.0,6.0,91,0.00,,,0.02,HR-IXPWINDi_r2_v1.2.,2013-03-08 19:38:00,
2013-03-08 14:43:00,35.9,33.8,30.10,NNW,338,7.0,9.0,92,0.00,,,0.03,HR-IXPWINDi_r2_v1.2.,2013-03-08 19:43:00,
2013-03-08 14:49:00,35.9,33.5,30.11,NNE,13,3.0,11.0,91,0.00,,,0.03,HR-IXPWINDi_r2_v1.2.,2013-03-08 19:49:00,
2013-03-08 14:54:00,35.9,33.5,30.11,NNW,346,1.0,11.0,91,0.05,,,0.04,HR-IXPWINDi_r2_v1.2.,2013-03-08 19:54:00,
2013-03-08 14:59:00,35.9,33.5,30.10,North,352,4.0,11.0,91,0.05,,,0.04,HR-IXPWINDi_r2_v1.2.,2013-03-08 19:59:00,
2013-03-08 15:04:00,36.0,33.6,30.10,NW,325,2.0,7.0,91,0.05,,,0.04,HR-IXPWINDi_r2_v1.2.,2013-03-08 20:04:00,
2013-03-08 15:09:00,36.0,33.6,30.11,NW,317,4.0,8.0,91,0.05,,,0.05,HR-IXPWINDi_r2_v1.2.,2013-03-08 20:09:00,
2013-03-08 15:14:00,36.1,33.7,30.10,NNW,348,1.0,8.0,91,0.05,,,0.05,HR-IXPWINDi_r2_v1.2.,2013-03-08 20:14:00,
2013-03-08 15:20:00,36.1,33.7,30.09,North,355,2.0,6.0,91,0.05,,,0.06,HR-IXPWINDi_r2_v1.2.,2013-03-08 20:20:00,
2013-03-08 15:25:00,36.4,34.0,30.10,NNE,23,4.0,7.0,91,0.05,,,0.06,HR-IXPWINDi_r2_v1.2.,2013-03-08 20:25:00,
2013-03-08 15:30:00,36.6,33.9,30.10,NNE,17,4.0,7.0,90,0.05,,,0.07,HR-IXPWINDi_r2_v1.2.,2013-03-08 20:30:00,
2013-03-08 15:35:00,36.7,34.0,30.10,NNW,344,2.0,6.0,90,0.05,,,0.07,HR-IXPWINDi_r2_v1.2.,2013-03-08 20:35:00,
2013-03-08 15:40:00,36.6,33.9,30.10,NNW,345,5.0,6.0,90,0.08,,,0.08,HR-IXPWINDi_r2_v1.2.,2013-03-08 20:40:00,
2013-03-08 15:46:00,36.6,33.6,30.11,SSE,148,0.0,11.0,89,0.07,,,0.08,HR-IXPWINDi_r2_v1.2.,2013-03-08 20:46:00,
2013-03-08 15:51:00,36.6,33.9,30.11,North,358,0.0,11.0,90,0.06,,,0.09,HR-IXPWINDi_r2_v1.2.,2013-03-08 20:51:00,
2013-03-08 15:56:00,36.5,33.5,30.10,NW,323,3.0,8.0,89,0.06,,,0.09,HR-IXPWINDi_r2_v1.2.,2013-03-08 20:56:00,
2013-03-08 16:01:00,36.6,33.6,30.10,NNW,331,2.0,8.0,89,0.05,,,0.10,HR-IXPWINDi_r2_v1.2.,2013-03-08 21:01:00,
2013-03-08 16:06:00,36.5,33.5,30.10,NNW,341,1.0,7.0,89,0.05,,,0.10,HR-IXPWINDi_r2_v1.2.,2013-03-08 21:06:00,
2013-03-08 16:12:00,36.4,33.4,30.10,NNW,341,1.0,7.0,89,0.06,,,0.11,HR-IXPWINDi_r2_v1.2.,2013-03-08 21:12:00,
2013-03-08 16:17:00,36.5,33.3,30.12,North,355,0.0,7.0,88,0.06,,,0.11,HR-IXPWINDi_r2_v1.2.,2013-03-08 21:17:00,
2013-03-08 16:22:00,36.5,33.3,30.12,NNW,331,4.0,7.0,88,0.06,,,0.12,HR-IXPWINDi_r2_v1.2.,2013-03-08 21:22:00,
2013-03-08 16:27:00,36.7,33.2,30.13,North,3,4.0,7.0,87,0.10,,,0.13,HR-IXPWINDi_r2_v1.2.,2013-03-08 21:27:00,
2013-03-08 16:32:00,36.9,33.4,30.13,NE,41,2.0,7.0,87,0.09,,,0.13,HR-IXPWINDi_r2_v1.2.,2013-03-08 21:32:00,
2013-03-08 16:37:00,37.1,33.3,30.13,NNW,331,3.0,7.0,86,0.09,,,0.14,HR-IXPWINDi_r2_v1.2.,2013-03-08 21:37:00,
2013-03-08 16:42:00,37.3,33.2,30.13,NNW,347,4.0,8.0,85,0.11,,,0.15,HR-IXPWINDi_r2_v1.2.,2013-03-08 21:42:00,
2013-03-08 16:48:00,37.6,33.2,30.14,NW,307,1.0,8.0,84,0.10,,,0.16,HR-IXPWINDi_r2_v1.2.,2013-03-08 21:48:00,
2013-03-08 16:53:00,37.7,33.6,30.14,NNW,347,4.0,8.0,85,0.09,,,0.17,HR-IXPWINDi_r2_v1.2.,2013-03-08 21:53:00,
2013-03-08 16:58:00,37.7,33.3,30.14,NNW,335,6.0,7.0,84,0.08,,,0.18,HR-IXPWINDi_r2_v1.2.,2013-03-08 21:58:00,
2013-03-08 17:03:00,37.5,32.8,30.14,North,2,1.0,8.0,83,0.08,,,0.18,HR-IXPWINDi_r2_v1.2.,2013-03-08 22:03:00,
2013-03-08 17:08:00,37.5,33.1,30.15,WNW,293,3.0,10.0,84,0.07,,,0.19,HR-IXPWINDi_r2_v1.2.,2013-03-08 22:08:00,
2013-03-08 17:14:00,37.5,33.1,30.15,NW,317,3.0,10.0,84,0.07,,,0.19,HR-IXPWINDi_r2_v1.2.,2013-03-08 22:14:00,
2013-03-08 17:19:00,37.5,33.1,30.15,NNW,345,1.0,6.0,84,0.06,,,0.20,HR-IXPWINDi_r2_v1.2.,2013-03-08 22:19:00,
2013-03-08 17:24:00,37.4,33.0,30.15,NW,323,0.0,5.0,84,0.06,,,0.20,HR-IXPWINDi_r2_v1.2.,2013-03-08 22:24:00,
2013-03-08 17:29:00,37.6,33.2,30.16,North,352,2.0,5.0,84,0.05,,,0.20,HR-IXPWINDi_r2_v1.2.,2013-03-08 22:29:00,
2013-03-08 17:35:00,37.7,33.3,30.16,NNW,347,1.0,5.0,84,0.00,,,0.20,HR-IXPWINDi_r2_v1.2.,2013-03-08 22:35:00,
2013-03-08 17:40:00,37.5,33.1,30.16,NNW,344,0.0,5.0,84,0.00,,,0.20,HR-IXPWINDi_r2_v1.2.,2013-03-08 22:40:00,
2013-03-08 17:45:00,37.5,33.4,30.16,NNE,26,2.0,4.0,85,0.00,,,0.20,HR-IXPWINDi_r2_v1.2.,2013-03-08 22:45:00,
2013-03-08 17:50:00,37.5,33.1,30.16,WNW,282,0.0,4.0,84,0.00,,,0.20,HR-IXPWINDi_r2_v1.2.,2013-03-08 22:50:00,
2013-03-08 17:55:00,37.3,33.2,30.17,NNW,347,0.0,4.0,85,0.00,,,0.21,HR-IXPWINDi_r2_v1.2.,2013-03-08 22:55:00,
2013-03-08 18:01:00,37.1,33.3,30.17,WSW,252,1.0,2.0,86,0.00,,,0.21,HR-IXPWINDi_r2_v1.2.,2013-03-08 23:01:00,
2013-03-08 18:06:00,37.1,33.3,30.17,WSW,248,1.0,4.0,86,0.00,,,0.21,HR-IXPWINDi_r2_v1.2.,2013-03-08 23:06:00,
2013-03-08 18:11:00,37.0,33.2,30.18,West,278,0.0,4.0,86,0.00,,,0.21,HR-IXPWINDi_r2_v1.2.,2013-03-08 23:11:00,
2013-03-08 18:16:00,36.8,33.3,30.18,WNW,286,0.0,2.0,87,0.00,,,0.21,HR-IXPWINDi_r2_v1.2.,2013-03-08 23:16:00,
2013-03-08 18:21:00,36.6,33.1,30.18,WSW,247,0.0,1.0,87,0.00,,,0.21,HR-IXPWINDi_r2_v1.2.,2013-03-08 23:21:00,
2013-03-08 18:27:00,36.2,33.2,30.19,WSW,247,0.0,1.0,89,0.00,,,0.21,HR-IXPWINDi_r2_v1.2.,2013-03-08 23:27:00,
2013-03-08 18:32:00,36.1,33.1,30.19,WSW,248,1.0,1.0,89,0.00,,,0.22,HR-IXPWINDi_r2_v1.2.,2013-03-08 23:32:00,
2013-03-08 18:37:00,35.9,32.9,30.19,WSW,247,1.0,1.0,89,0.00,,,0.22,HR-IXPWINDi_r2_v1.2.,2013-03-08 23:37:00,
2013-03-08 18:42:00,35.9,32.9,30.19,WSW,250,0.0,1.0,89,0.00,,,0.22,HR-IXPWINDi_r2_v1.2.,2013-03-08 23:42:00,
2013-03-08 18:47:00,36.0,33.0,30.20,NW,324,2.0,3.0,89,0.00,,,0.22,HR-IXPWINDi_r2_v1.2.,2013-03-08 23:47:00,
2013-03-08 18:53:00,36.3,33.1,30.20,NW,316,0.0,3.0,88,0.00,,,0.22,HR-IXPWINDi_r2_v1.2.,2013-03-08 23:53:00,
2013-03-08 18:58:00,36.3,33.1,30.20,WSW,249,0.0,2.0,88,0.00,,,0.22,HR-IXPWINDi_r2_v1.2.,2013-03-08 23:58:00,
2013-03-08 19:03:00,36.4,33.2,30.20,NNW,328,0.0,5.0,88,0.00,,,0.22,HR-IXPWINDi_r2_v1.2.,2013-03-09 00:03:00,
2013-03-08 19:08:00,36.5,33.0,30.20,NW,324,0.0,5.0,87,0.00,,,0.22,HR-IXPWINDi_r2_v1.2.,2013-03-09 00:08:00,
2013-03-08 19:13:00,36.6,33.1,30.21,NW,324,0.0,2.0,87,0.00,,,0.22,HR-IXPWINDi_r2_v1.2.,2013-03-09 00:13:00,
2013-03-08 19:20:00,36.5,33.0,30.21,NE,43,0.0,2.0,87,0.00,,,0.22,HR-IXPWINDi_r2_v1.2.,2013-03-09 00:20:00,
2013-03-08 19:25:00,36.3,32.8,30.21,NE,42,0.0,1.0,87,0.00,,,0.23,HR-IXPWINDi_r2_v1.2.,2013-03-09 00:25:00,
2013-03-08 19:30:00,35.9,32.7,30.21,NE,43,0.0,0.0,88,0.00,,,0.23,HR-IXPWINDi_r2_v1.2.,2013-03-09 00:30:00,
2013-03-08 19:35:00,35.6,32.6,30.21,NE,43,0.0,0.0,89,0.00,,,0.23,HR-IXPWINDi_r2_v1.2.,2013-03-09 00:35:00,
2013-03-08 19:41:00,35.2,32.5,30.22,NE,43,0.0,0.0,90,0.00,,,0.23,HR-IXPWINDi_r2_v1.2.,2013-03-09 00:41:00,
2013-03-08 19:46:00,34.7,32.3,30.22,NE,43,0.0,0.0,91,0.00,,,0.23,HR-IXPWINDi_r2_v1.2.,2013-03-09 00:46:00,
2013-03-08 19:51:00,34.4,32.3,30.22,NE,43,0.0,1.0,92,0.00,,,0.23,HR-IXPWINDi_r2_v1.2.,2013-03-09 00:51:00,
2013-03-08 19:56:00,34.3,32.5,30.22,NE,42,0.0,1.0,93,0.00,,,0.23,HR-IXPWINDi_r2_v1.2.,2013-03-09 00:56:00,
2013-03-08 20:01:00,34.2,32.4,30.23,NE,44,0.0,1.0,93,0.00,,,0.23,HR-IXPWINDi_r2_v1.2.,2013-03-09 01:01:00,
2013-03-08 20:06:00,34.1,32.3,30.23,NE,44,0.0,1.0,93,0.00,,,0.23,HR-IXPWINDi_r2_v1.2.,2013-03-09 01:06:00,
2013-03-08 20:12:00,34.0,32.2,30.23,NE,44,0.0,0.0,93,0.00,,,0.23,HR-IXPWINDi_r2_v1.2.,2013-03-09 01:12:00,
2013-03-08 20:17:00,34.0,32.2,30.23,NE,44,0.0,0.0,93,0.00,,,0.23,HR-IXPWINDi_r2_v1.2.,2013-03-09 01:17:00,
2013-03-08 20:22:00,34.3,32.5,30.23,NE,44,0.0,0.0,93,0.00,,,0.23,HR-IXPWINDi_r2_v1.2.,2013-03-09 01:22:00,
2013-03-08 20:27:00,34.2,32.1,30.24,NE,44,0.0,0.0,92,0.00,,,0.23,HR-IXPWINDi_r2_v1.2.,2013-03-09 01:27:00,
2013-03-08 20:33:00,34.0,31.9,30.23,NE,44,0.0,0.0,92,0.00,,,0.23,HR-IXPWINDi_r2_v1.2.,2013-03-09 01:33:00,
2013-03-08 20:38:00,33.8,32.0,30.23,NNE,32,0.0,1.0,93,0.00,,,0.23,HR-IXPWINDi_r2_v1.2.,2013-03-09 01:38:00,
2013-03-08 20:43:00,33.7,31.9,30.23,North,358,0.0,1.0,93,0.00,,,0.23,HR-IXPWINDi_r2_v1.2.,2013-03-09 01:43:00,
2013-03-08 20:48:00,33.7,31.9,30.24,North,358,0.0,1.0,93,0.00,,,0.23,HR-IXPWINDi_r2_v1.2.,2013-03-09 01:48:00,
2013-03-08 20:53:00,33.6,31.8,30.24,North,358,0.0,1.0,93,0.00,,,0.23,HR-IXPWINDi_r2_v1.2.,2013-03-09 01:53:00,
2013-03-08 20:58:00,33.9,31.8,30.24,North,358,0.0,3.0,92,0.00,,,0.23,HR-IXPWINDi_r2_v1.2.,2013-03-09 01:58:00,
2013-03-08 21:04:00,33.8,31.7,30.25,North,358,0.0,3.0,92,0.00,,,0.23,HR-IXPWINDi_r2_v1.2.,2013-03-09 02:04:00,
2013-03-08 21:09:00,34.0,31.6,30.25,North,355,0.0,1.0,91,0.00,,,0.23,HR-IXPWINDi_r2_v1.2.,2013-03-09 02:09:00,
2013-03-08 21:14:00,34.0,31.3,30.24,North,355,0.0,1.0,90,0.00,,,0.23,HR-IXPWINDi_r2_v1.2.,2013-03-09 02:14:00,
2013-03-08 21:19:00,33.8,31.2,30.25,WSW,250,0.0,1.0,90,0.00,,,0.23,HR-IXPWINDi_r2_v1.2.,2013-03-09 02:19:00,
2013-03-08 21:25:00,34.1,31.2,30.25,NNW,344,4.0,4.0,89,0.00,,,0.23,HR-IXPWINDi_r2_v1.2.,2013-03-09 02:25:00,
2013-03-08 21:30:00,34.5,31.0,30.25,SW,218,0.0,4.0,87,0.00,,,0.23,HR-IXPWINDi_r2_v1.2.,2013-03-09 02:30:00,
2013-03-08 21:35:00,34.5,31.0,30.25,NNW,338,2.0,6.0,87,0.00,,,0.23,HR-IXPWINDi_r2_v1.2.,2013-03-09 02:35:00,
2013-03-08 21:40:00,34.6,30.5,30.25,NNW,345,1.0,6.0,85,0.00,,,0.23,HR-IXPWINDi_r2_v1.2.,2013-03-09 02:40:00,
2013-03-08 21:46:00,34.6,30.2,30.26,WNW,300,0.0,4.0,84,0.00,,,0.23,HR-IXPWINDi_r2_v1.2.,2013-03-09 02:46:00,
2013-03-08 21:51:00,34.5,30.4,30.26,WNW,300,0.0,2.0,85,0.00,,,0.23,HR-IXPWINDi_r2_v1.2.,2013-03-09 02:51:00,
2013-03-08 21:56:00,34.3,29.9,30.25,NNW,340,0.0,2.0,84,0.00,,,0.23,HR-IXPWINDi_r2_v1.2.,2013-03-09 02:56:00,
2013-03-08 22:01:00,34.6,29.9,30.25,North,353,0.0,2.0,83,0.00,,,0.23,HR-IXPWINDi_r2_v1.2.,2013-03-09 03:01:00,
2013-03-08 22:06:00,34.5,29.8,30.26,NNW,345,1.0,2.0,83,0.00,,,0.23,HR-IXPWINDi_r2_v1.2.,2013-03-09 03:06:00,
2013-03-08 22:12:00,34.4,29.7,30.26,NW,314,0.0,2.0,83,0.00,,,0.23,HR-IXPWINDi_r2_v1.2.,2013-03-09 03:12:00,
2013-03-08 22:17:00,34.5,29.6,30.26,NNW,337,0.0,3.0,82,0.00,,,0.23,HR-IXPWINDi_r2_v1.2.,2013-03-09 03:17:00,
2013-03-08 22:22:00,34.3,29.4,30.26,North,356,2.0,3.0,82,0.00,,,0.23,HR-IXPWINDi_r2_v1.2.,2013-03-09 03:22:00,
2013-03-08 22:27:00,34.4,29.5,30.26,North,352,1.0,4.0,82,0.00,,,0.23,HR-IXPWINDi_r2_v1.2.,2013-03-09 03:27:00,
2013-03-08 22:33:00,34.5,29.3,30.26,North,8,0.0,4.0,81,0.00,,,0.23,HR-IXPWINDi_r2_v1.2.,2013-03-09 03:33:00,
2013-03-08 22:38:00,34.3,29.1,30.26,NNE,16,0.0,3.0,81,0.00,,,0.23,HR-IXPWINDi_r2_v1.2.,2013-03-09 03:38:00,
2013-03-08 22:43:00,34.1,28.9,30.26,NNW,328,1.0,2.0,81,0.00,,,0.23,HR-IXPWINDi_r2_v1.2.,2013-03-09 03:43:00,
2013-03-08 22:48:00,34.4,28.9,30.26,NNW,345,2.0,7.0,80,0.00,,,0.23,HR-IXPWINDi_r2_v1.2.,2013-03-09 03:48:00,
2013-03-08 22:53:00,34.4,28.9,30.26,NNW,331,1.0,7.0,80,0.00,,,0.23,HR-IXPWINDi_r2_v1.2.,2013-03-09 03:53:00,
2013-03-08 22:58:00,34.4,28.9,30.26,North,351,1.0,4.0,80,0.00,,,0.23,HR-IXPWINDi_r2_v1.2.,2013-03-09 03:58:00,
2013-03-08 23:04:00,34.4,28.9,30.26,NNW,344,3.0,5.0,80,0.00,,,0.23,HR-IXPWINDi_r2_v1.2.,2013-03-09 04:04:00,
2013-03-08 23:09:00,34.5,28.6,30.26,NNW,341,3.0,7.0,79,0.00,,,0.23,HR-IXPWINDi_r2_v1.2.,2013-03-09 04:09:00,
2013-03-08 23:14:00,34.7,28.5,30.26,NW,314,1.0,7.0,78,0.00,,,0.23,HR-IXPWINDi_r2_v1.2.,2013-03-09 04:14:00,
2013-03-08 23:19:00,34.6,28.4,30.26,NNW,348,2.0,8.0,78,0.00,,,0.23,HR-IXPWINDi_r2_v1.2.,2013-03-09 04:19:00,
2013-03-08 23:25:00,34.7,28.2,30.26,NNW,338,3.0,8.0,77,0.00,,,0.23,HR-IXPWINDi_r2_v1.2.,2013-03-09 04:25:00,
2013-03-08 23:30:00,34.7,28.2,30.26,SE,129,3.0,9.0,77,0.00,,,0.23,HR-IXPWINDi_r2_v1.2.,2013-03-09 04:30:00,
2013-03-08 23:35:00,34.5,28.0,30.26,NNE,28,1.0,9.0,77,0.00,,,0.23,HR-IXPWINDi_r2_v1.2.,2013-03-09 04:35:00,
2013-03-08 23:40:00,34.4,27.9,30.26,NNW,342,0.0,5.0,77,0.00,,,0.23,HR-IXPWINDi_r2_v1.2.,2013-03-09 04:40:00,
2013-03-08 23:45:00,34.0,27.8,30.26,ENE,72,2.0,5.0,78,0.00,,,0.23,HR-IXPWINDi_r2_v1.2.,2013-03-09 04:45:00,
2013-03-08 23:51:00,33.9,27.7,30.26,NNE,33,0.0,5.0,78,0.00,,,0.23,HR-IXPWINDi_r2_v1.2.,2013-03-09 04:51:00,
2013-03-08 23:56:00,33.8,28.0,30.26,NNW,334,1.0,5.0,79,0.00,,,0.23,HR-IXPWINDi_r2_v1.2.,2013-03-09 04:56:00,